Aérodrome :
LOGIN :

S'inscrire | Disclaimer

   EN    FR    IT 

 










Légende :    VFR   VFR Marginal   IFR   IFR Intensif   IFR Très Intensif
Visi : 
Plafond : 
>= 8 km
>= 3000ft
5 à 8 km
1000 à 3000 ft
1500m à 5 km
500 à 1000 ft
800 à 1500m
200 à 500 ft
< 800m
< 200 ft
Symboles :   Orages  Brouillard  Fortes neiges  Fortes précipitations  Vent > 20 kt
SIGMETs :   Divers  Orages  Givrage  Turbulence  Onde Orograph.  Cendres Volcan.







- Altitude de l'aérodrome : 313 ft
- Code IATA : LEH
- Voir les cartes d'approche


LFOH - Le Havre Octeville

DERNIER METAR :
  • 251400Z AUTO 33011KT 290V360 9999 BKN030 08/02 Q1014 NOSIG

METARs EXPIRÉS :
  • 251330Z AUTO 33010KT 300V010 9999 SCT029 BKN038 08/01 Q1014 NOSIG
  • 251300Z AUTO 33010KT 310V030 9999 BKN032 BKN038 08/01 Q1013 NOSIG
  • 251230Z AUTO 33009KT 9999 BKN031 BKN038 08/01 Q1014 NOSIG
  • 251200Z AUTO 33008KT 290V010 9999 FEW030 SCT039 08/00 Q1014 NOSIG
  • 251130Z AUTO 33010KT 300V360 9999 FEW033 SCT042 08/00 Q1014 NOSIG

TAF TAF LFOH
Valide du 25 à 12h jusqu'au 26 à 12h UTC


251100Z 2512/2612 35013KT 9999 SCT040
TEMPO 2523/2612 3000 SHRA BKN020CB
PROB40
TEMPO 2523/2612 01015G25KT TSGR BKN010CB
ATIS : +33 2 35 54 64 93
Pas de NOTAMs connus pour ce terrain.



MET'MAP, la Météo Aéronautique d'un coup d'oeil ! - Copyright ORBIFLY Décembre 2007 - Disclaimer

ORBIFLY MET'MAP TEAM :

Programmation & Développement : Alexandra Zaïnal
Conception & Développement : Baudouin d'Aumeries
Co-Programmation & Développement : Marc-Olivier Méhu
Soutien technique & logistique : Manuel Goepfert

Contact : metmap@orbifly.com




SOURCES & CREDITS :

   NOAA